Location: Lombard
(41.8800°N, 88.0080°W)
Time: 09:20:59
(UTC-06:00)

Explorer 11/Cluster Stage 4 - All Passes

Search period start: 27 January 2023 00:00
Search period end: 06 February 2023 00:00
Orbit: 466 x 1244 km, 28.8° (Epoch: 26 January)

Date Brightness Start Highest point End Pass type
(mag) Time Alt. Az. Time Alt. Az. Time Alt. Az.
27 Jan - 07:13:17 10° SSW 07:18:14 18° SSE 07:22:48 10° ESE daylight
27 Jan - 09:00:30 10° SW 09:06:15 25° S 09:11:14 10° SE daylight
27 Jan - 10:49:19 10° WSW 10:54:04 21° SSW 10:58:10 10° SE daylight
28 Jan - 06:59:21 10° SSW 07:04:47 20° SSE 07:09:49 10° ESE daylight
28 Jan - 08:46:48 10° SW 08:52:51 27° S 08:58:08 10° SE daylight
28 Jan - 10:35:45 10° WSW 10:40:42 21° SSW 10:45:00 10° SE daylight
29 Jan - 05:01:59 10° SSE 05:03:22 10° SSE 05:04:45 10° SE visible
29 Jan - 06:45:28 10° SSW 06:51:18 22° SSE 06:56:45 10° ESE daylight
29 Jan - 08:33:07 10° SW 08:39:26 28° S 08:44:59 10° SE daylight
29 Jan - 10:22:11 10° WSW 10:27:19 22° SSW 10:31:47 10° SSE daylight
30 Jan - 04:46:59 10° S 04:49:49 12° SSE 04:52:40 10° SE visible
30 Jan - 06:31:39 10° SW 06:37:47 24° SSE 06:43:34 10° ESE visible
30 Jan - 08:19:26 10° WSW 08:25:57 29° S 08:31:45 10° SE daylight
30 Jan - 10:08:37 10° WSW 10:13:52 22° SSW 10:18:30 10° SSE daylight
31 Jan - 04:32:36 10° S 04:36:16 14° SSE 04:39:56 10° SE visible
31 Jan - 06:17:53 10° SW 06:24:15 26° SSE 06:30:20 10° ESE visible
31 Jan - 08:05:47 10° WSW 08:12:27 30° S 08:18:29 10° SE daylight
31 Jan - 09:55:03 10° WSW 10:00:24 21° SSW 10:05:10 10° SSE daylight
01 Feb - 04:18:30 10° S 04:22:40 15° SSE 04:26:55 10° ESE visible
01 Feb - 06:04:09 10° SW 06:10:41 27° SSE 06:17:01 10° ESE visible
01 Feb - 07:52:09 10° WSW 07:58:56 30° S 08:05:08 10° SE daylight
01 Feb - 09:41:30 10° WSW 09:46:53 21° SSW 09:51:46 10° SSE daylight
02 Feb - 04:04:31 10° S 04:09:05 16° SSE 04:13:45 10° ESE visible
02 Feb - 05:50:28 10° SW 05:57:06 28° S 06:03:38 10° ESE visible
02 Feb - 07:38:31 10° WSW 07:45:21 30° S 07:51:44 10° SE daylight
02 Feb - 09:27:58 10° WSW 09:33:21 20° SSW 09:38:16 10° SSE daylight
03 Feb - 03:50:41 10° SSW 03:55:28 18° SSE 04:00:27 10° ESE visible
03 Feb - 05:36:50 10° SW 05:43:29 29° S 05:50:10 10° ESE visible
03 Feb - 07:24:55 10° WSW 07:31:46 30° S 07:38:16 10° SE daylight
03 Feb - 09:14:27 10° WSW 09:19:46 20° SSW 09:24:41 10° SSE daylight
04 Feb - 03:36:54 10° SSW 03:41:51 19° SSE 03:47:04 10° ESE visible
04 Feb - 05:23:14 10° SW 05:29:52 30° S 05:36:40 10° ESE visible
04 Feb - 07:11:21 10° WSW 07:18:09 30° S 07:24:44 10° SE daylight
04 Feb - 09:00:59 10° WSW 09:06:09 19° SSW 09:11:02 10° SSE daylight
05 Feb - 03:23:13 10° SSW 03:28:13 20° SSE 03:33:36 10° ESE visible
05 Feb - 05:09:40 10° SW 05:16:14 30° S 05:23:05 10° ESE visible
05 Feb - 06:57:48 10° WSW 07:04:31 29° S 07:11:08 10° SE daylight
05 Feb - 08:47:34 10° WSW 08:52:32 18° SSW 08:57:16 10° SSE daylight
